User: anonymous   Login
Location: ??
(34.9170°N, 135.5016°E)
Time: 17:12:18
(UTC+00:00)
Language:

Explorer 7 - Orbit

View from above orbital plane
View from above orbital plane
View from above satellite
View from above satellite

Ground track
Ground track

The orbit data is extracted from the following two-line orbital elements,

1 00022U 59009A   21136.84028190  .00000524  00000-0  61801-4 0  9993
2 00022  50.2843 337.3785 0138597  92.8298 268.8521 14.95550201520253
Epoch (UTC): 16 May 2021 20:10:00
Eccentricity: 0.0138597
inclination: 50.2843°
perigee height: 484 km
apogee height: 677 km
right ascension of ascending node: 337.3785°
argument of perigee: 92.8298°
revolutions per day: 14.95550201
mean anomaly at epoch: 268.8521°
orbit number at epoch: 52025

The dashed part of the orbit path shows where the satellite is in the earth's shadow,  

DLR